Weather History for Caribou, ME

Change the Weather History Date:

Friday, November 2, 2012

  Actual Average Record
Temperature  
Mean Temperature 45 °F 37 °F  
Max Temperature 50 °F 44 °F 63 °F (1950)
Min Temperature 39 °F 30 °F 16 °F (1951)
Degree Days  
Heating Degree Days 20 28  
Month to date heating degree days 33 56  
Since 1 July heating degree days 862 1196  
Cooling Degree Days 0 0  
Month to date cooling degree days 0 0  
Year to date cooling degree days 279 180  
Moisture  
Dew Point 42 °F    
Average Humidity 87    
Maximum Humidity 100    
Minimum Humidity 74    
Precipitation  
Precipitation T in 0.13 in 1.11 in (1963)
Month to date precipitation 0.23 0.25  
Year to date precipitation 35.10 31.84  
Snow  
Snow 0.00 in 0.10 in 1.30 in (2002)
Month to date snowfall 0.0 0.3  
Since 1 July snowfall T 2.0  
Since 1 September snowfall T 2.0  
Snow Depth 0.00 in    
Sea Level Pressure  
Sea Level Pressure 29.47 in    
Wind  
Wind Speed 2 mph (WSW)    
Max Wind Speed 7 mph    
Max Gust Speed 9 mph    
Visibility 6 miles    
Events Fog , Rain    
T = Trace of Precipitation, MM = Missing Value Source: NWS Daily Summary

Daily Weather History Graph

Daily Weather History Graph

Search for Another Location

Airport:

Trip Planner

Search our weather history database for the weather conditions in past years. The results will help you decide how hot, cold, wet, or windy it might be!

Date:

Astronomy

Nov. 02, 2012 Rise Set
Actual Time 7:16 AM EDT 5:13 PM EDT
Civil Twilight 6:44 AM EDT 5:45 PM EDT
Nautical Twilight 6:08 AM EDT 6:21 PM EDT
Astronomical Twilight 5:33 AM EDT 6:57 PM EDT
Moon 7:50 PM EDT (11/2) 10:42 AM EDT (11/2)
Length of Visible Light 11h 01m
Length of Day
9h 57m
Waning Gibbous, 87% of the Moon is Illuminated
Nov 2
Waning Gibbous
Nov 6
Last Quarter
Nov 13
New
Nov 20
First Quarter
Nov 28
Full

Hourly Weather History & Observations

Time (EDT) Temp. Windchill Dew Point Humidity Pressure Visibility Wind Dir Wind Speed Gust Speed Precip Events Conditions
12:26 AM 46.4 °F 45.2 °F 44.6 °F 93% 29.46 in 9.0 mi Variable 3.5 mph - 0.01 in Rain Light Rain
12:54 AM 46.0 °F - 44.1 °F 93% 29.48 in 7.0 mi Calm Calm - 0.02 in Rain Light Rain
1:44 AM 46.4 °F - 44.6 °F 93% 29.45 in 10.0 mi Calm Calm - 0.00 in   Overcast
1:54 AM 46.0 °F - 44.1 °F 93% 29.47 in 9.0 mi Calm Calm - 0.00 in   Mostly Cloudy
2:04 AM 44.6 °F - 42.8 °F 93% 29.46 in 1.5 mi Calm Calm - N/A   Scattered Clouds
2:11 AM 44.6 °F - 42.8 °F 93% 29.46 in 1.0 mi Calm Calm - N/A   Partly Cloudy
2:14 AM 44.6 °F - 42.8 °F 93% 29.46 in 2.0 mi Calm Calm - N/A   Partly Cloudy
2:21 AM 44.6 °F - 42.8 °F 93% 29.45 in 5.0 mi Calm Calm - N/A   Clear
2:24 AM 44.6 °F 43.1 °F 42.8 °F 93% 29.46 in 2.5 mi WSW 3.5 mph - N/A   Partly Cloudy
2:26 AM 44.6 °F 43.1 °F 42.8 °F 93% 29.46 in 1.0 mi WSW 3.5 mph - N/A   Mist
2:33 AM 42.8 °F - 42.8 °F 100% 29.46 in 0.5 mi Calm Calm - N/A Fog Fog
2:54 AM 42.1 °F - 41.0 °F 96% 29.47 in 0.2 mi Calm Calm - N/A Fog Fog
3:54 AM 42.1 °F 40.2 °F 41.0 °F 96% 29.47 in 0.5 mi WSW 3.5 mph - N/A Fog Fog
4:49 AM 39.2 °F 35.9 °F 39.2 °F 100% 29.46 in 0.5 mi SW 4.6 mph - N/A Fog Fog
4:54 AM 39.9 °F 36.7 °F 39.0 °F 97% 29.48 in 0.8 mi WSW 4.6 mph - N/A   Overcast
5:01 AM 39.2 °F - 39.2 °F 100% 29.46 in 1.0 mi Calm Calm - N/A   Overcast
5:10 AM 41.0 °F - 39.2 °F 93% 29.46 in 2.0 mi Calm Calm - N/A   Overcast
5:18 AM 41.0 °F - 39.2 °F 93% 29.46 in 6.0 mi Calm Calm - N/A   Overcast
5:35 AM 41.0 °F - 39.2 °F 93% 29.46 in 1.5 mi Calm Calm - N/A   Overcast
5:40 AM 41.0 °F - 39.2 °F 93% 29.46 in 0.8 mi Calm Calm - N/A   Overcast
5:52 AM 41.0 °F - 39.2 °F 93% 29.45 in 1.2 mi Calm Calm - N/A   Overcast
5:54 AM 41.0 °F - 39.9 °F 96% 29.47 in 1.8 mi Calm Calm - N/A   Overcast
5:57 AM 41.0 °F - 39.2 °F 93% 29.45 in 3.0 mi Calm Calm - N/A   Overcast
6:26 AM 42.8 °F 41.1 °F 41.0 °F 93% 29.45 in 1.8 mi West 3.5 mph - N/A   Overcast
6:35 AM 42.8 °F - 41.0 °F 93% 29.45 in 1.0 mi Calm Calm - N/A   Overcast
6:42 AM 42.8 °F - 41.0 °F 93% 29.45 in 0.8 mi Calm Calm - N/A   Mist
6:54 AM 43.0 °F - 42.1 °F 97% 29.47 in 0.5 mi Calm Calm - N/A Fog Fog
7:22 AM 42.8 °F - 42.8 °F 100% 29.45 in 1.5 mi Calm Calm - N/A   Overcast
7:36 AM 42.8 °F - 42.8 °F 100% 29.45 in 2.0 mi Calm Calm - N/A   Overcast
7:40 AM 42.8 °F - 42.8 °F 100% 29.45 in 1.2 mi Calm Calm - N/A   Overcast
7:54 AM 43.0 °F - 42.1 °F 97% 29.47 in 0.5 mi Calm Calm - N/A Fog Fog
8:54 AM 44.1 °F - 43.0 °F 96% 29.49 in 0.5 mi Calm Calm - N/A Fog Fog
9:04 AM 44.6 °F - 42.8 °F 93% 29.46 in 1.0 mi Calm Calm - N/A   Mist
9:27 AM 44.6 °F - 42.8 °F 93% 29.46 in 5.0 mi Calm Calm - N/A   Overcast
9:54 AM 45.0 °F 43.5 °F 43.0 °F 93% 29.49 in 4.0 mi SW 3.5 mph - N/A   Overcast
10:54 AM 46.0 °F 44.8 °F 44.1 °F 93% 29.49 in 10.0 mi West 3.5 mph - N/A   Overcast
11:34 AM 46.4 °F - 44.6 °F 93% 29.47 in 10.0 mi Calm Calm - N/A   Overcast
11:54 AM 46.9 °F - 44.1 °F 90% 29.49 in 10.0 mi Calm Calm - N/A   Overcast
12:11 PM 46.4 °F 45.2 °F 44.6 °F 93% 29.46 in 10.0 mi SW 3.5 mph - N/A   Overcast
12:37 PM 48.2 °F - 44.6 °F 87% 29.46 in 10.0 mi West 3.5 mph - N/A   Overcast
12:54 PM 48.0 °F - 44.1 °F 86% 29.48 in 10.0 mi Calm Calm - N/A   Overcast
1:42 PM 50.0 °F - 42.8 °F 76% 29.45 in 10.0 mi Calm Calm - 0.00 in Rain Light Rain
1:54 PM 50.0 °F - 43.0 °F 77% 29.47 in 10.0 mi Calm Calm - 0.00 in   Overcast
2:12 PM 50.0 °F - 42.8 °F 76% 29.45 in 10.0 mi Calm Calm - 0.00 in   Overcast
2:36 PM 50.0 °F - 42.8 °F 76% 29.46 in 10.0 mi West 3.5 mph - 0.00 in   Overcast
2:54 PM 48.9 °F - 42.1 °F 77% 29.48 in 10.0 mi WNW 5.8 mph - 0.00 in   Overcast
3:54 PM 48.0 °F - 42.1 °F 80% 29.49 in 10.0 mi WNW 3.5 mph - N/A   Overcast
4:54 PM 46.9 °F - 41.0 °F 80% 29.49 in 10.0 mi Calm Calm - N/A   Overcast
5:54 PM 46.0 °F - 42.1 °F 86% 29.51 in 10.0 mi Calm Calm - N/A   Overcast
6:54 PM 46.0 °F 44.8 °F 42.1 °F 86% 29.52 in 10.0 mi WSW 3.5 mph - N/A   Overcast
7:54 PM 45.0 °F 43.5 °F 42.1 °F 90% 29.53 in 10.0 mi WSW 3.5 mph - N/A   Overcast
8:54 PM 45.0 °F - 42.1 °F 90% 29.52 in 10.0 mi Calm Calm - N/A   Overcast
9:54 PM 44.1 °F 42.5 °F 41.0 °F 89% 29.53 in 10.0 mi WSW 3.5 mph - N/A   Overcast
10:54 PM 44.1 °F 42.5 °F 41.0 °F 89% 29.53 in 10.0 mi WSW 3.5 mph - N/A   Overcast
11:54 PM 43.0 °F 40.3 °F 39.9 °F 89% 29.53 in 10.0 mi WSW 4.6 mph - N/A   Overcast